OPS 9432 (DSCS 2-2)

导读 | 星芒AI

OPS 9432(DSCS 2-2)是一颗美国国防部运营的军事通信卫星,属于国防卫星通信系统(DSCS)第二代系列。该卫星于1973年发射,搭载于Thorburn Delta火箭,运行在地球同步轨道,旨在为美军提供安全、可靠的战术和战略通信服务。OPS 9432在冷战期间发挥了重要作用,支持全球范围内的军事通信需求。尽管已退役多年,但它在推动军用卫星通信技术发展方面具有重要意义。

基本信息
目录编号:
5588
目录名称:
OPS 9432 (DSCS 2-2)
国际标识:
1971-095B
轨道中心:
EARTH
卫星名称:
OPS 9432 (DSCS 2-2)
卫星全名:
--
卫星状态:
在轨 (已飞行19722 天)
发射日期:
1971-11-03 UTC
国别 :
美国 (US)
星等 :
--
轨道信息
数据来源 国际轨道数据 AOE轨道数据
星历时间 2025-10-31T22:09:39+0800
13小时前
查看轨道信息
2025-10-30T23:00:00+0800
1天前
查看轨道信息
半长轴 42162.822km 42162.71km
偏心率 0.0003711 0.0003867
轨道倾角 2.138° 2.139°
近地点辐角 27.990° 28.015°
升交点赤经 262.355° 262.373°
平近点角 111.290° 122.863°
近地点 35769.04km 35768.27km
远地点 35800.334km 35800.88km
周期 1435.999分钟 1435.994分钟
每日圈数 1.002786 1.00279
详细信息
使用方式:
暂无
2D轨道图
3D轨道图
轨道高度分析图
轨道倾角分析图
轨道综合分析图
查看轨道综合分析图